EN

Hourly Weather Dzilam Gonzalez

Today, 31 October, Saturday

Time Temperature Precipitation Wind Pressure Humidity
00:00 +25°C° 0 mm 3 mps 762 mmHg 92%
01:00 +25°C° 0 mm 3 mps 761 mmHg 92%
02:00 +25°C° 0 mm 3 mps 761 mmHg 91%
03:00 +26°C° 0 mm 3 mps 761 mmHg 91%
04:00 +26°C° 0.1 mm 3 mps 761 mmHg 90%
05:00 +26°C° 0.1 mm 3 mps 761 mmHg 90%
06:00 +26°C° 0.1 mm 3 mps 761 mmHg 90%
07:00 +26°C° 0.1 mm 3 mps 762 mmHg 88%
08:00 +27°C° 0.1 mm 3 mps 762 mmHg 86%
09:00 +28°C° 0.1 mm 3 mps 763 mmHg 84%
10:00 +28°C° 0.3 mm 3 mps 762 mmHg 85%
11:00 +28°C° 0.3 mm 4 mps 762 mmHg 85%
12:00 +28°C° 0.3 mm 4 mps 762 mmHg 86%
13:00 +28°C° 1.5 mm 4 mps 761 mmHg 88%
14:00 +28°C° 1.5 mm 4 mps 761 mmHg 91%
15:00 +27°C° 1.5 mm 4 mps 761 mmHg 93%
16:00 +27°C° 0.5 mm 4 mps 761 mmHg 95%
17:00 +26°C° 0.5 mm 4 mps 761 mmHg 96%
18:00 +25°C° 0.5 mm 4 mps 761 mmHg 97%
19:00 +25°C° 0 mm 4 mps 762 mmHg 97%
20:00 +25°C° 0 mm 3 mps 762 mmHg 97%
21:00 +25°C° 0 mm 3 mps 763 mmHg 97%
22:00 +25°C° 0 mm 3 mps 763 mmHg 97%
23:00 +25°C° 0 mm 3 mps 762 mmHg 96%

Tomorrow, 1 November, Sunday

Time Temperature Precipitation Wind Pressure Humidity
00:00 +25°C° 0 mm 3 mps 762 mmHg 96%
01:00 +25°C° 0 mm 3 mps 762 mmHg 96%
02:00 +25°C° 0 mm 3 mps 762 mmHg 95%
03:00 +25°C° 0 mm 3 mps 761 mmHg 94%
04:00 +25°C° 0 mm 3 mps 762 mmHg 94%
05:00 +25°C° 0 mm 3 mps 762 mmHg 94%
06:00 +25°C° 0 mm 3 mps 762 mmHg 93%
07:00 +25°C° 0 mm 4 mps 763 mmHg 91%
08:00 +26°C° 0 mm 4 mps 763 mmHg 88%
09:00 +27°C° 0 mm 4 mps 764 mmHg 86%
10:00 +27°C° 0 mm 4 mps 763 mmHg 82%
11:00 +27°C° 0 mm 5 mps 763 mmHg 79%
12:00 +28°C° 0 mm 5 mps 762 mmHg 75%
13:00 +27°C° 0 mm 5 mps 762 mmHg 76%
14:00 +27°C° 0 mm 5 mps 761 mmHg 78%
15:00 +27°C° 0 mm 5 mps 761 mmHg 79%
16:00 +26°C° 0 mm 4 mps 761 mmHg 80%
17:00 +26°C° 0 mm 4 mps 761 mmHg 82%
18:00 +25°C° 0 mm 4 mps 762 mmHg 83%
19:00 +26°C° 0 mm 4 mps 762 mmHg 84%
20:00 +26°C° 0 mm 4 mps 762 mmHg 85%
21:00 +26°C° 0 mm 3 mps 763 mmHg 86%
22:00 +26°C° 0.2 mm 4 mps 762 mmHg 89%
23:00 +25°C° 0.2 mm 4 mps 762 mmHg 92%

Day after tomorrow, 2 November, Monday

Time Temperature Precipitation Wind Pressure Humidity
00:00 +25°C° 0.2 mm 4 mps 762 mmHg 94%
01:00 +25°C° 0.2 mm 4 mps 762 mmHg 95%
02:00 +25°C° 0.2 mm 4 mps 761 mmHg 95%
03:00 +25°C° 0.2 mm 5 mps 761 mmHg 95%
04:00 +25°C° 0.6 mm 4 mps 761 mmHg 95%
05:00 +25°C° 0.6 mm 4 mps 761 mmHg 96%
06:00 +23°C° 0.6 mm 4 mps 762 mmHg 96%
07:00 +25°C° 1.2 mm 5 mps 762 mmHg 95%
08:00 +26°C° 1.2 mm 5 mps 762 mmHg 93%
09:00 +27°C° 1.2 mm 6 mps 763 mmHg 91%
10:00 +27°C° 1.3 mm 6 mps 762 mmHg 92%
11:00 +27°C° 1.3 mm 6 mps 762 mmHg 92%
12:00 +27°C° 1.3 mm 6 mps 762 mmHg 92%
13:00 +27°C° 0.9 mm 6 mps 761 mmHg 92%
14:00 +27°C° 0.9 mm 6 mps 761 mmHg 92%
15:00 +27°C° 0.9 mm 6 mps 760 mmHg 92%
16:00 +26°C° 0.9 mm 6 mps 760 mmHg 93%
17:00 +26°C° 0.9 mm 6 mps 761 mmHg 94%
18:00 +25°C° 0.9 mm 5 mps 761 mmHg 96%
19:00 +24°C° 1.4 mm 6 mps 761 mmHg 96%
20:00 +24°C° 1.4 mm 6 mps 762 mmHg 96%
21:00 +24°C° 1.4 mm 6 mps 762 mmHg 96%
22:00 +24°C° 0.2 mm 6 mps 762 mmHg 96%
23:00 +23°C° 0.2 mm 6 mps 762 mmHg 95%

3 November, Tuesday

Time Temperature Precipitation Wind Pressure Humidity
00:00 +23°C° 0.2 mm 5 mps 762 mmHg 95%
01:00 +23°C° 0 mm 5 mps 761 mmHg 93%
02:00 +23°C° 0 mm 5 mps 761 mmHg 92%
03:00 +22°C° 0 mm 5 mps 761 mmHg 91%
04:00 +22°C° 0 mm 5 mps 761 mmHg 90%
05:00 +22°C° 0 mm 4 mps 762 mmHg 90%
06:00 +22°C° 0 mm 4 mps 762 mmHg 90%
07:00 +25°C° 0 mm 5 mps 762 mmHg 84%
08:00 +26°C° 0 mm 5 mps 762 mmHg 78%
09:00 +27°C° 0 mm 5 mps 763 mmHg 72%
10:00 +28°C° 0.1 mm 5 mps 762 mmHg 71%
11:00 +28°C° 0.1 mm 6 mps 762 mmHg 70%
12:00 +29°C° 0.1 mm 6 mps 761 mmHg 69%
13:00 +28°C° 0.1 mm 6 mps 761 mmHg 70%
14:00 +28°C° 0.1 mm 6 mps 761 mmHg 71%
15:00 +27°C° 0.1 mm 6 mps 760 mmHg 72%
16:00 +26°C° 0 mm 6 mps 761 mmHg 76%
17:00 +25°C° 0 mm 5 mps 761 mmHg 79%
18:00 +23°C° 0 mm 5 mps 761 mmHg 82%
19:00 +23°C° 0 mm 5 mps 762 mmHg 84%
20:00 +22°C° 0 mm 4 mps 762 mmHg 85%
21:00 +22°C° 0 mm 4 mps 763 mmHg 86%
22:00 +22°C° 0 mm 4 mps 762 mmHg 86%
23:00 +22°C° 0 mm 4 mps 762 mmHg 86%

4 November, Wednesday

Time Temperature Precipitation Wind Pressure Humidity
00:00 +21°C° 0 mm 4 mps 762 mmHg 87%
01:00 +21°C° 0 mm 4 mps 762 mmHg 86%
02:00 +22°C° 0 mm 4 mps 762 mmHg 86%
03:00 +22°C° 0 mm 4 mps 761 mmHg 86%
04:00 +22°C° 0 mm 4 mps 761 mmHg 86%
05:00 +22°C° 0 mm 4 mps 762 mmHg 87%
06:00 +22°C° 0 mm 4 mps 762 mmHg 87%
07:00 +23°C° 0.1 mm 4 mps 762 mmHg 82%
08:00 +26°C° 0.1 mm 4 mps 762 mmHg 77%
09:00 +27°C° 0.1 mm 5 mps 763 mmHg 72%
10:00 +27°C° 0.2 mm 5 mps 762 mmHg 74%
11:00 +27°C° 0.2 mm 5 mps 762 mmHg 76%
12:00 +27°C° 0.2 mm 5 mps 762 mmHg 77%
13:00 +28°C° 0.2 mm 5 mps 761 mmHg 74%
14:00 +28°C° 0.2 mm 5 mps 761 mmHg 72%
15:00 +28°C° 0.2 mm 6 mps 760 mmHg 69%
16:00 +27°C° 0 mm 5 mps 761 mmHg 73%
17:00 +26°C° 0 mm 5 mps 761 mmHg 77%
18:00 +23°C° 0 mm 5 mps 761 mmHg 82%
19:00 +23°C° 0 mm 5 mps 761 mmHg 83%
20:00 +23°C° 0 mm 4 mps 762 mmHg 84%
21:00 +23°C° 0 mm 4 mps 762 mmHg 85%
22:00 +23°C° 0 mm 4 mps 762 mmHg 86%
23:00 +23°C° 0 mm 4 mps 761 mmHg 86%

5 November, Thursday

Time Temperature Precipitation Wind Pressure Humidity
00:00 +23°C° 0 mm 4 mps 761 mmHg 86%
01:00 +23°C° 0 mm 4 mps 761 mmHg 86%
02:00 +23°C° 0 mm 4 mps 760 mmHg 87%
03:00 +23°C° 0 mm 4 mps 760 mmHg 88%
04:00 +25°C° 0.1 mm 4 mps 759 mmHg 89%
05:00 +25°C° 0.1 mm 4 mps 759 mmHg 90%
06:00 +25°C° 0.1 mm 5 mps 759 mmHg 92%
07:00 +26°C° 0.6 mm 5 mps 759 mmHg 91%
08:00 +26°C° 0.6 mm 5 mps 759 mmHg 91%
09:00 +27°C° 0.6 mm 6 mps 760 mmHg 91%
10:00 +27°C° 0.9 mm 6 mps 759 mmHg 88%
11:00 +28°C° 0.9 mm 7 mps 759 mmHg 85%
12:00 +28°C° 0.9 mm 7 mps 758 mmHg 83%
13:00 +28°C° 0.6 mm 7 mps 758 mmHg 83%
14:00 +28°C° 0.6 mm 7 mps 757 mmHg 84%
15:00 +28°C° 0.6 mm 7 mps 756 mmHg 85%
16:00 +27°C° 0.6 mm 6 mps 757 mmHg 88%
17:00 +26°C° 0.6 mm 6 mps 757 mmHg 91%
18:00 +25°C° 0.6 mm 5 mps 757 mmHg 94%
19:00 +25°C° 0.3 mm 5 mps 757 mmHg 94%
20:00 +25°C° 0.3 mm 5 mps 757 mmHg 94%
21:00 +25°C° 0.3 mm 5 mps 757 mmHg 94%
22:00 +25°C° 0.5 mm 5 mps 757 mmHg 94%
23:00 +25°C° 0.5 mm 5 mps 757 mmHg 95%
Show more